x

Fripp Nearshore (frp 2) (41033) Weather Station

9:08am - Fri 24th Feb 2017 All times are EST. -5 hours from GMT.

  • Wind
    9mph, 11mph gusts
  • Sea Temp 61°f
  • Air Temp 62°f
  • Sea Pressure 1012mb
  • Fripp Nearshore (frp 2)
  • Fripp Nearshore (frp 2)

More Historic Weather Station data

Upgrade to MSW Pro to gain access to the past 30 days of data for over 8000 Wavebouys and Weather Stations around the globe.

Join Pro

Comparision Forecast

View Surf forecast
   
Fri 02/24 9:08am 9 11 mph 1012mb 61f 62f
8:08am 9 13 mph 1011.1mb 61f 62f
7:08am 9 11 mph 1010.7mb 61f 62f
6:08am 11 16 mph 1010.2mb 61f 62f
5:08am 9 13 mph 1010.2mb 61f 62f
4:08am 9 13 mph 1010.3mb 61f 62f
3:08am 11 13 mph 1010.4mb 61f 63f
2:08am 11 13 mph 1010.3mb 61f 63f
1:08am 11 13 mph 1010.5mb 61f 63f
12:08am 13 18 mph 1010.7mb 61f 63f
Thu 02/23 11:08pm 13 16 mph 1010.8mb 61f 63f
10:08pm 16 20 mph 1010.8mb 61f 63f
9:08pm 13 18 mph 1010.5mb 61f 63f
8:08pm 16 18 mph 1010.3mb 61f 63f
7:08pm 13 20 mph 1010mb 61f 63f
6:08pm 13 18 mph 1009.7mb 61f 63f
5:08pm 13 18 mph 1009.3mb 61f 64f
4:08pm 13 18 mph 1009mb 61f 63f
3:08pm 16 20 mph 1009mb 61f 64f
2:08pm 18 22 mph 1009.4mb 61f 64f
1:08pm 16 22 mph 1010mb 61f 64f
12:08pm 18 25 mph 1010.6mb 61f 64f
11:08am 18 22 mph 1010.8mb 61f 64f
10:08am 16 22 mph 1010.8mb 61f 64f
9:08am 16 20 mph 1010.9mb 61f 63f
8:08am 16 20 mph 1010.3mb 60f 63f
7:08am 18 22 mph 1009.6mb 60f 62f
6:08am 16 20 mph 1009.3mb 60f 62f
5:08am 16 18 mph 1008.9mb 60f 63f
Wed 02/22 5:08am 11 16 mph 1013mb 60f 63f
4:08am 9 13 mph 1012.9mb 60f 63f
3:08am 13 16 mph 1013.5mb 60f 64f
2:08am 13 16 mph 1014mb 60f 63f
1:08am 11 13 mph 1014.6mb 60f 63f
12:08am 11 13 mph 1015.2mb 61f 63f
Tue 02/21 11:08pm 11 13 mph 1015.7mb 61f 64f
10:08pm 11 13 mph 1016.2mb 61f 63f
9:08pm 11 13 mph 1016.8mb 61f 63f
8:08pm 9 11 mph 1017mb 60f 62f
7:08pm 9 11 mph 1017.3mb 60f 62f
6:08pm 9 11 mph 1017.5mb 60f 62f
5:08pm 9 13 mph 1017.4mb 61f 62f
4:08pm 9 13 mph 1017.4mb 61f 62f
3:08pm 11 13 mph 1017.4mb 61f 62f
2:08pm 11 13 mph 1017.9mb 61f 62f
1:08pm 7 11 mph 1019mb 61f 62f
12:08pm 9 13 mph 1019.9mb 60f 63f
11:08am 13 16 mph 1020.4mb 61f 63f
10:08am 11 16 mph 1021.2mb 61f 63f
9:08am 9 13 mph 1021.3mb 60f 62f
8:08am 9 11 mph 1021.4mb 60f 62f
7:08am 11 16 mph 1021.2mb 60f 62f
6:08am 9 13 mph 1021mb 60f 61f
5:08am 7 9 mph 1020.6mb 60f 61f
4:08am 9 11 mph 1020.4mb 60f 61f
3:08am 9 11 mph 1020.4mb 60f 61f
2:08am 7 9 mph 1020.7mb 60f 61f
1:08am 7 9 mph 1020.6mb 61f 61f
12:08am 4 7 mph 1020.8mb 61f 61f
Mon 02/20 11:08pm 7
mph
1021.1mb 61f 61f
10:08pm 7 9 mph 1021.4mb 61f 61f
9:08pm 7
mph
1021.5mb 61f 61f
8:08pm 7
mph
1021.3mb 61f 61f
7:08pm 7 9 mph 1021.2mb 60f 61f
6:08pm 4 7 mph 1021.2mb 61f 61f
5:08pm 4 7 mph 1021mb 61f 61f
4:08pm 7
mph
1021mb 61f 61f